sat.trackr.live / text

‹ back to catalog

STARLINK-31563

NORAD 59190 · 2024-045N

PAYLOAD ACTIVE UNKNOWN

§ Identity

Operator
Country
US
Launch date
2024-03-10
Launch site
AFETR
Launch vehicle
Mass (kg)
RCS (m²)

Purposes: comms

External: N2YO · Heavens-Above · Gunter

§ Orbital elements

Epoch: 2026-05-25T01:26:59.169120Z

Period
94.27 min
Inclination
43.0041°
Eccentricity
0.0001171
Mean motion
15.27584885 rev/d
Perigee alt
482.2 km
Apogee alt
483.8 km
Semi-major
6,861.2 km
B*
3.8469e-5
RAAN
21.0393°
Arg perigee
267.8981°
Mean anomaly
92.1736°
Rev number
12,484

§ Raw data

STARLINK-315631 59190U 24045N   26145.06040705  .00000797  00000+0  38469-4 0  99952 59190  43.0041  21.0393 0001171 267.8981  92.1736 15.27584885124847

JSON: /api/v1/satellites/59190 · /tle

For live sub-satellite position, see the globe view (requires WebGL).

§ Visibility from observer

Set your observer location to see the next 7 days of passes ≥ 10°. The values pass through the URL so the page stays shareable.

No JS? Fill the form by hand. The geolocation button needs JavaScript.